CO-66
1 32791U 08021J 11075.59605798 .00000641 00000-0 87382-4 0 09281
2 32791 097.8577 141.0765 0016909 115.1586 245.1390 14.81933122155798
RS-30
1 32953U 08025A 11076.79249928 .00000010 00000-0 00000 0 0 5606
2 32953 082.4997 219.5291 0018435 223.4775 136.4856 12.43010959127730
TACSAT-3
1 35001U 09028A 11076.87353316 .00014681 00000-0 29737-3 0 5367
2 35001 040.4546 006.0469 0024308 251.2641 108.5269 15.45720155102938
PHARMSAT
1 35002U 09028B 11075.92562869 .00013321 00000-0 26934-3 0 05027
2 35002 040.4737 009.2531 0026232 250.2748 109.5233 15.45778538102818
HAWKSAT1
1 35003U 09028C 11075.84735648 .00040262 00000-0 59047-3 0 05515
2 35003 040.4600 351.7163 0025468 273.1266 086.6632 15.54351611103002
CP6
1 35004U 09028D 11075.88526919 .00053339 00000-0 70096-3 0 05526
2 35004 040.4610 346.6004 0025570 278.9737 080.7879 15.57206385103054
AEROCUB3
1 35005U 09028E 11006.09222617 .14049365 73043-5 82692-3 0 6103
2 35005 040.4461 021.7975 0025578 084.1677 280.7191 16.39196088 92544
METEOR-M
1 35865U 09049A 11076.73893655 .00000176 00000-0 10000-3 0 1956
2 35865 098.7178 133.0084 0001950 314.5788 045.5188 14.21835242 77590
RS-38
1 35869U 09049E 11076.75002460 .00000177 00000-0 10000-3 0 2039
2 35869 098.7156 133.0588 0004107 303.5164 056.5601 14.22002745 77601
